Back to catalog

APOLINK IPOS

AliveCommunicationsSSO
NORAD 69877·PAYLOAD·🇺🇸 United States
This satellite name has not been confirmed by official sources yet.

Launched Jul 7, 2026 from Vandenberg Space Force Base

Loading…

Next Passes (next 24 hours)

TLE

FreshSource: Space-Track

Epoch: Sep 13, 2026, 23:23 UTC

1 69877U 26156J   26256.97460996  .00002618  00000-0  26616-3 0  9999
2 69877  97.7461 156.2588 0003321 281.9442  78.1404 14.91639701 10238

Track APOLINK IPOS in real time with AllMySat

Download on the App Store